Rbgn^[z[y[W
メイン
   新天体発見情報
     Comet P/2021 R1 (PANSTARRS)
投稿するにはまず登録を

フラット表示 前のトピック | 次のトピック
投稿者 スレッド
佐藤裕久
投稿日時: 2021-9-27 13:43
モデレータ
登録日: 2005-6-12
居住地: 日本
投稿: 2703
オンライン
Comet P/2021 R1 (PANSTARRS)

R. Weryk (西オンタリオ大学,物理および天文学科)の通報によると、Mark Huber (ハワイ大学)は、
9月4.4日UT、HaleakalaにあるPan-STARRS1 1.8-m Ritchey-Chretien反射望遠鏡で得た45秒4枚のw-
バンドサーベイ画像から彗星を発見した。
発見画像で、この彗星は1".6のシーイングで2".0(半値全幅:FWHM)の集光したコマとp.a. 250°に
8"のまっすぐな尾が見えた。
小惑星センターのPCCP webpageに公表後、M. Jaeger (Vienna, オーストリア)は、2021年9月5.96日
UT、Stixendorfの30-cm 反射望遠鏡で得た180秒露出20枚のスタックでは、20.5等の6".5のコマと
p.a. 250°に20"の尾が見えたと"ICQ Comet Observations" Facebook page に報告した。
2020年8月まで遡りPan-STARRS1とPan-STARRS2による発見前の観測があった。

発見位置は次のとおり、

     2021 UT             R.A. (2000) Decl.       Mag.
     Sept. 4.35526   23 47 01.75   - 5 03 09.1   20.6
           4.36610   23 47 01.50   - 5 03 11.5   20.8
           4.37699   23 47 01.25   - 5 03 13.6   20.6
           4.38782   23 47 01.00   - 5 03 15.8   21.0
           4.51051   23 46 58.11   - 5 03 40.8   20.6
           4.51119   23 46 58.10   - 5 03 40.9   20.5

MPCの楕円軌道要素、位置推算表は次のとおり、

Orbital elements:
    P/2021 R1 (PANSTARRS)                                                       
Epoch 2021 Dec. 12.0 TT = JDT 2459560.5                                         
T 2021 Dec. 17.56776 TT                                 Rudenko                 
q   4.8856327            (2000.0)            P               Q                  
n   0.04031293     Peri.  220.31251     +0.99610251     -0.06700943             
a   8.4237699      Node   143.40864     +0.08209456     +0.94212540             
e   0.4200183      Incl.    5.52129     -0.03225342     +0.32849577             
P  24.4                                                                         
From 70 observations 2020 Aug. 10-2021 Sept. 5, mean residual 0".3.             
                                                                                
    P/2021 R1 (PANSTARRS)                                                       
Epoch 2045 May 20.0 TT = JDT 2468120.5                                          
T 2045 June 1.11343 TT                                  Rudenko                 
q   4.8717386            (2000.0)            P               Q                  
n   0.04245313     Peri.  220.48153     +0.99644752     -0.06047347             
a   8.1382228      Node   142.86096     +0.07631998     +0.94266539             
e   0.4013756      Incl.    5.57098     -0.03560341     +0.32821475             
P  23.2                                                                         
From 70 observations 2020 Aug. 10-2021 Sept. 5, mean residual 0".3.             
                                                                                
    P/2021 R1 (PANSTARRS)                                                       
Epoch 2021 July 5.0 TT = JDT 2459400.5                                          
T 2021 Dec. 16.32475 TT                                 Rudenko                 
q   4.8860945            (2000.0)            P               Q                  
n   0.04001773     Peri.  220.19070     +0.99624828     -0.06480862             
a   8.4651457      Node   143.40390     +0.08001257     +0.94229882             
e   0.4227985      Incl.    5.52039     -0.03297490     +0.32843993             
P  24.6                                                                         
From 70 observations 2020 Aug. 10-2021 Sept. 5, mean residual 0".3.             
                                                                                
Ephemeris:
Date    TT    R. A. (2000) Decl.     Delta      r    Elong.  Phase   m1
2021 08 09    23 54 29.8 -03 46 19   4.1190  4.9296   139.0     7.8  21.0
...
2021 08 24    23 50 56.1 -04 26 25   3.9887  4.9201   154.4     5.1  20.9
...
2021 09 01    23 48 16.0 -04 51 55   3.9423  4.9155   162.8     3.5  20.9
...
2021 09 07    23 46 00.8 -05 12 07   3.9191  4.9123   169.1     2.2  20.9
2021 09 08    23 45 37.3 -05 15 31   3.9162  4.9118   170.1     2.0  20.9
2021 09 09    23 45 13.7 -05 18 56   3.9136  4.9113   171.1     1.8  20.9
...
2021 09 15    23 42 48.3 -05 39 27   3.9044  4.9083   176.1     0.8  20.9
...
2021 09 23    23 39 31.9 -06 06 02   3.9086  4.9046   172.1     1.6  20.9
...
2021 10 08    23 33 49.9 -06 49 45   3.9666  4.8985   156.4     4.7  20.9

(MPEC 2021-R150、CBET 5030)

フラット表示 前のトピック | 次のトピック

題名 投稿者 日時
 » Comet P/2021 R1 (PANSTARRS) 佐藤裕久 2021-9-27 13:43

投稿するにはまず登録を
 
© 1999 Tsutomu Seki.